• In Hungary
  • List of Countries
  • For 7 days
  • Water Temperature
  • Satellite Maps
  • Weather Map
  • News
  • Weather Widgets
  • user-avatar
    Login

    Hourly Weather Shevernyaevo

    Today, 22 October, Monday

    Time Temperature Precipitation Wind Pressure Humidity
    00:00 +4°C° 0 mm 1 mps 747 mmHg 78%
    01:00 +4°C° 0 mm 1 mps 747 mmHg 80%
    02:00 +3°C° 0 mm 1 mps 747 mmHg 81%
    03:00 +4°C° 0 mm 0 mps 747 mmHg 76%
    04:00 +4°C° 0 mm 0 mps 747 mmHg 76%
    05:00 +3°C° 0 mm 0 mps 747 mmHg 76%
    06:00 +3°C° 0 mm 0 mps 747 mmHg 77%
    07:00 +5°C° 0 mm 1 mps 747 mmHg 76%
    08:00 +5°C° 0 mm 1 mps 746 mmHg 75%
    09:00 +5°C° 0 mm 1 mps 746 mmHg 74%
    10:00 +6°C° 0 mm 1 mps 746 mmHg 70%
    11:00 +6°C° 0 mm 2 mps 745 mmHg 66%
    12:00 +7°C° 0 mm 2 mps 745 mmHg 62%
    13:00 +7°C° 0 mm 2 mps 744 mmHg 62%
    14:00 +7°C° 0 mm 3 mps 744 mmHg 61%
    15:00 +7°C° 0 mm 3 mps 743 mmHg 60%
    16:00 +5°C° 0 mm 3 mps 743 mmHg 65%
    17:00 +5°C° 0 mm 2 mps 742 mmHg 71%
    18:00 +4°C° 0 mm 2 mps 742 mmHg 76%
    19:00 +4°C° 0 mm 2 mps 741 mmHg 77%
    20:00 +3°C° 0 mm 3 mps 741 mmHg 79%
    21:00 +2°C° 0 mm 3 mps 740 mmHg 81%
    22:00 +2°C° 0 mm 3 mps 740 mmHg 81%
    23:00 +2°C° 0 mm 3 mps 739 mmHg 82%

    Tomorrow, 23 October, Tuesday

    Time Temperature Precipitation Wind Pressure Humidity
    00:00 +1°C° 0 mm 3 mps 739 mmHg 82%
    01:00 +1°C° 0 mm 3 mps 738 mmHg 83%
    02:00 +1°C° 0 mm 3 mps 737 mmHg 84%
    03:00 +1°C° 0 mm 3 mps 737 mmHg 84%
    04:00 +1°C° 0 mm 3 mps 736 mmHg 85%
    05:00 +1°C° 0 mm 3 mps 735 mmHg 86%
    06:00 0°C° 0 mm 3 mps 735 mmHg 87%
    07:00 0°C° 0 mm 4 mps 734 mmHg 87%
    08:00 0°C° 0 mm 4 mps 734 mmHg 86%
    09:00 +1°C° 0 mm 4 mps 734 mmHg 85%
    10:00 +1°C° 0 mm 4 mps 734 mmHg 85%
    11:00 +3°C° 0 mm 3 mps 733 mmHg 84%
    12:00 +3°C° 0 mm 3 mps 733 mmHg 83%
    13:00 +4°C° 0.1 mm 3 mps 732 mmHg 83%
    14:00 +4°C° 0.1 mm 3 mps 732 mmHg 83%
    15:00 +5°C° 0.1 mm 2 mps 732 mmHg 83%
    16:00 +5°C° 0.1 mm 2 mps 731 mmHg 84%
    17:00 +5°C° 0.1 mm 2 mps 731 mmHg 85%
    18:00 +5°C° 0.1 mm 1 mps 730 mmHg 87%
    19:00 +5°C° 0 mm 1 mps 730 mmHg 87%
    20:00 +5°C° 0 mm 1 mps 729 mmHg 88%
    21:00 +5°C° 0 mm 1 mps 729 mmHg 88%
    22:00 +4°C° 0 mm 2 mps 728 mmHg 89%
    23:00 +4°C° 0 mm 2 mps 727 mmHg 89%

    Day after tomorrow, 24 October, Wednesday

    Time Temperature Precipitation Wind Pressure Humidity
    00:00 +4°C° 0 mm 2 mps 727 mmHg 89%
    01:00 +3°C° 0 mm 2 mps 726 mmHg 89%
    02:00 +3°C° 0 mm 2 mps 725 mmHg 90%
    03:00 +3°C° 0 mm 2 mps 725 mmHg 91%
    04:00 +3°C° 0 mm 2 mps 724 mmHg 91%
    05:00 +3°C° 0 mm 2 mps 723 mmHg 92%
    06:00 +2°C° 0 mm 2 mps 723 mmHg 92%
    07:00 +2°C° 0 mm 3 mps 722 mmHg 88%
    08:00 +2°C° 0 mm 3 mps 722 mmHg 85%
    09:00 +3°C° 0 mm 3 mps 722 mmHg 81%
    10:00 +3°C° 0.1 mm 4 mps 721 mmHg 78%
    11:00 +4°C° 0.1 mm 4 mps 721 mmHg 74%
    12:00 +5°C° 0.1 mm 4 mps 721 mmHg 70%
    13:00 +5°C° 0.4 mm 4 mps 720 mmHg 72%
    14:00 +5°C° 0.4 mm 5 mps 720 mmHg 74%
    15:00 +5°C° 0.4 mm 5 mps 720 mmHg 77%
    16:00 +5°C° 0.6 mm 5 mps 720 mmHg 80%
    17:00 +5°C° 0.6 mm 4 mps 719 mmHg 84%
    18:00 +5°C° 0.6 mm 4 mps 719 mmHg 87%
    19:00 +5°C° 0.1 mm 4 mps 719 mmHg 89%
    20:00 +5°C° 0.1 mm 3 mps 719 mmHg 91%
    21:00 +4°C° 0.1 mm 3 mps 719 mmHg 93%
    22:00 +5°C° 0.1 mm 2 mps 719 mmHg 94%
    23:00 +5°C° 0.1 mm 2 mps 719 mmHg 95%

    25 October, Thursday

    Time Temperature Precipitation Wind Pressure Humidity
    00:00 +5°C° 0.1 mm 2 mps 719 mmHg 96%
    01:00 +5°C° 1.1 mm 2 mps 719 mmHg 96%
    02:00 +5°C° 1.1 mm 2 mps 719 mmHg 97%
    03:00 +5°C° 1.1 mm 3 mps 719 mmHg 97%
    04:00 +5°C° 0.9 mm 3 mps 718 mmHg 97%
    05:00 +5°C° 0.9 mm 3 mps 718 mmHg 96%
    06:00 +5°C° 0.9 mm 3 mps 717 mmHg 96%
    07:00 +5°C° 0.3 mm 4 mps 716 mmHg 95%
    08:00 +5°C° 0.3 mm 4 mps 715 mmHg 94%
    09:00 +6°C° 0.3 mm 5 mps 715 mmHg 93%
    10:00 +6°C° 2.9 mm 5 mps 714 mmHg 93%
    11:00 +5°C° 2.9 mm 6 mps 713 mmHg 93%
    12:00 +5°C° 2.9 mm 6 mps 712 mmHg 93%
    13:00 +5°C° 1.6 mm 6 mps 712 mmHg 88%
    14:00 +6°C° 1.6 mm 5 mps 711 mmHg 84%
    15:00 +6°C° 1.6 mm 5 mps 711 mmHg 79%
    16:00 +5°C° 0.4 mm 4 mps 711 mmHg 82%
    17:00 +4°C° 0.4 mm 3 mps 711 mmHg 84%
    18:00 +5°C° 0.4 mm 2 mps 711 mmHg 86%
    19:00 +3°C° 0.5 mm 3 mps 711 mmHg 86%
    20:00 +3°C° 0.5 mm 4 mps 711 mmHg 86%
    21:00 +2°C° 0.5 mm 5 mps 712 mmHg 87%
    22:00 +2°C° 0.2 mm 6 mps 713 mmHg 85%
    23:00 0°C° 0.2 mm 7 mps 714 mmHg 84%

    26 October, Friday

    Time Temperature Precipitation Wind Pressure Humidity
    00:00 0°C° 0.2 mm 7 mps 715 mmHg 83%
    01:00 0°C° 0.1 mm 7 mps 715 mmHg 82%
    02:00 0°C° 0.1 mm 7 mps 716 mmHg 82%
    03:00 0°C° 0.1 mm 7 mps 717 mmHg 81%
    04:00 -1°C° 0.1 mm 7 mps 718 mmHg 81%
    05:00 -1°C° 0.1 mm 7 mps 719 mmHg 80%
    06:00 -1°C° 0.1 mm 7 mps 720 mmHg 80%
    07:00 -1°C° 0 mm 6 mps 721 mmHg 79%
    08:00 -2°C° 0 mm 6 mps 721 mmHg 77%
    09:00 -2°C° 0 mm 6 mps 722 mmHg 76%
    10:00 -1°C° 0 mm 6 mps 723 mmHg 73%
    11:00 -1°C° 0 mm 6 mps 724 mmHg 70%
    12:00 +1°C° 0 mm 6 mps 725 mmHg 67%
    13:00 +1°C° 0 mm 6 mps 725 mmHg 67%
    14:00 +2°C° 0 mm 6 mps 726 mmHg 68%
    15:00 +2°C° 0 mm 6 mps 726 mmHg 68%
    16:00 +1°C° 0 mm 6 mps 727 mmHg 71%
    17:00 +1°C° 0 mm 6 mps 728 mmHg 75%
    18:00 +1°C° 0 mm 6 mps 729 mmHg 78%
    19:00 +1°C° 0 mm 5 mps 729 mmHg 78%
    20:00 0°C° 0 mm 5 mps 730 mmHg 78%
    21:00 0°C° 0 mm 5 mps 730 mmHg 78%
    22:00 0°C° 0 mm 5 mps 731 mmHg 79%
    23:00 0°C° 0 mm 5 mps 732 mmHg 80%

    27 October, Saturday

    Time Temperature Precipitation Wind Pressure Humidity
    00:00 -1°C° 0 mm 5 mps 732 mmHg 81%
    01:00 -1°C° 0 mm 4 mps 733 mmHg 82%
    02:00 -2°C° 0 mm 4 mps 733 mmHg 83%
    03:00 -2°C° 0 mm 4 mps 734 mmHg 84%
    04:00 -2°C° 0 mm 4 mps 735 mmHg 85%
    05:00 -3°C° 0 mm 4 mps 735 mmHg 87%
    06:00 -2°C° 0 mm 3 mps 736 mmHg 88%
    07:00 -2°C° 0 mm 4 mps 736 mmHg 86%
    08:00 -2°C° 0 mm 4 mps 736 mmHg 84%
    09:00 -1°C° 0 mm 4 mps 737 mmHg 83%
    10:00 0°C° 0 mm 4 mps 737 mmHg 78%
    11:00 +1°C° 0 mm 5 mps 737 mmHg 74%
    12:00 +2°C° 0 mm 5 mps 737 mmHg 69%
    13:00 +3°C° 0 mm 5 mps 736 mmHg 69%
    14:00 +3°C° 0 mm 5 mps 736 mmHg 69%
    15:00 +3°C° 0 mm 5 mps 736 mmHg 69%
    16:00 +3°C° 0.1 mm 5 mps 736 mmHg 73%
    17:00 +3°C° 0.1 mm 5 mps 736 mmHg 77%
    18:00 +3°C° 0.1 mm 5 mps 736 mmHg 81%
    19:00 +3°C° 0 mm 5 mps 736 mmHg 81%
    20:00 +3°C° 0 mm 6 mps 736 mmHg 81%
    21:00 +3°C° 0 mm 6 mps 736 mmHg 81%
    22:00 +3°C° 0 mm 5 mps 736 mmHg 83%
    23:00 +3°C° 0 mm 5 mps 736 mmHg 85%

    28 October, Sunday

    Time Temperature Precipitation Wind Pressure Humidity
    00:00 +3°C° 0 mm 4 mps 736 mmHg 86%
    01:00 +3°C° 0 mm 4 mps 736 mmHg 89%
    02:00 +3°C° 0 mm 4 mps 736 mmHg 91%
    03:00 +2°C° 0 mm 3 mps 736 mmHg 94%
    04:00 +3°C° 0 mm 3 mps 736 mmHg 95%
    05:00 +3°C° 0 mm 3 mps 736 mmHg 95%
    06:00 +3°C° 0 mm 3 mps 736 mmHg 96%
    07:00 +4°C° 0.1 mm 3 mps 736 mmHg 96%
    08:00 +5°C° 0.1 mm 3 mps 736 mmHg 96%
    09:00 +7°C° 0.1 mm 3 mps 736 mmHg 96%
    10:00 +6°C° 0.1 mm 4 mps 736 mmHg 94%
    11:00 +7°C° 0.1 mm 4 mps 736 mmHg 92%
    12:00 +8°C° 0.1 mm 5 mps 736 mmHg 90%
    13:00 +9°C° 0.1 mm 5 mps 735 mmHg 89%
    14:00 +9°C° 0.1 mm 6 mps 735 mmHg 87%
    15:00 +10°C° 0.1 mm 6 mps 734 mmHg 86%
    16:00 +10°C° 0 mm 6 mps 734 mmHg 87%
    17:00 +9°C° 0 mm 6 mps 734 mmHg 87%
    18:00 +9°C° 0 mm 7 mps 734 mmHg 88%
    19:00 +10°C° 0 mm 6 mps 734 mmHg 88%
    20:00 +10°C° 0 mm 6 mps 734 mmHg 88%
    21:00 +10°C° 0 mm 6 mps 734 mmHg 87%
    22:00 +10°C° 0 mm 6 mps 734 mmHg 88%
    23:00 +10°C° 0 mm 6 mps 734 mmHg 88%
    Show more